Theta_e
340 340 339 338 339 338 338 337 338 337 337 344 344 339 334 332 332 331 332 333 333 332 331 331 333 334 335 336 338 339 340 342 343 346 344 341 340 340 338 336 335 336 341 344
340 337 337 337 337 337 337 336 335 336 335 342 337 333 332 331 331 330 330 331 331 328 328 328 329 330 331 333 334 336 337 339 341 343 345 343 341 337 335 335 335 335 335 335
340 338 338 338 336 336 337 337 336 332 338 336 334 332 332 331 330 330 328 327 328 328 328 329 330 330 330 330 330 333 335 337 338 340 341 342 344 343 343 341 344 344 338 334
339 338 342 337 336 336 335 332 331 332 335 333 332 332 330 329 329 326 326 327 327 328 328 328 328 328 328 329 330 330 333 336 337 339 340 339 340 341 342 342 342 344 346 345
339 338 337 336 334 332 331 331 330 331 331 331 331 330 329 326 326 326 325 328 328 328 327 326 326 326 325 325 326 329 328 331 333 336 337 337 339 341 341 342 343 345 345 345
337 337 337 336 332 330 329 329 330 331 331 330 329 330 329 324 326 326 327 326 326 326 325 325 325 324 324 324 324 325 327 327 329 332 333 335 336 338 339 340 340 343 344 345
336 335 335 334 331 329 329 338 332 330 330 329 330 328 325 324 326 325 323 322 322 323 322 322 321 322 322 323 324 322 323 324 325 326 328 330 332 334 337 337 337 335 336 338
332 334 335 332 331 331 337 332 331 330 329 328 327 324 323 325 325 322 320 321 322 322 322 321 320 320 321 319 320 320 320 320 321 322 323 328 330 332 333 332 332 336 337 340
336 339 334 331 332 332 331 331 330 329 327 325 323 323 324 324 321 319 320 323 322 321 320 319 318 317 317 319 318 319 321 321 321 321 323 325 328 331 334 334 334 333 335 338
333 333 332 331 331 330 330 329 329 327 325 322 323 323 323 320 318 319 322 322 321 320 319 318 316 316 316 318 319 321 322 321 322 322 324 326 330 330 332 334 334 334 334 336
333 335 332 331 331 330 330 329 327 324 322 322 322 321 318 317 319 321 322 321 321 319 317 318 318 317 317 318 319 320 321 322 322 323 326 328 330 331 331 332 332 333 333 331
331 333 332 331 331 330 330 328 326 322 321 321 318 316 316 317 319 321 321 321 321 318 317 318 319 320 319 319 320 320 321 321 323 323 326 328 329 330 331 331 330 329 327 327
330 330 331 330 330 330 330 328 324 319 320 316 315 314 314 315 318 318 320 319 320 319 317 317 319 319 320 320 321 322 321 322 322 322 325 325 329 329 331 329 331 330 330 329
328 330 329 328 330 329 328 324 319 318 316 314 314 314 313 312 313 313 317 318 319 316 315 315 316 318 320 321 321 322 322 323 323 322 325 326 326 327 329 330 331 331 331 330
329 329 328 330 330 328 325 321 319 317 315 315 315 315 314 314 312 312 313 315 317 317 315 314 315 317 319 320 322 322 322 322 322 324 325 326 327 328 330 331 332 331 331 330
329 329 328 330 329 327 324 321 319 317 315 315 316 315 315 314 314 312 311 311 314 315 315 315 314 317 318 319 321 322 323 323 324 324 324 325 326 329 331 330 331 330 330 330
329 329 329 329 328 327 324 320 318 316 315 316 317 316 315 314 314 314 312 310 310 310 311 312 314 314 315 317 318 319 320 321 322 323 324 324 324 326 324 328 329 329 329 330
329 329 329 329 328 327 324 320 318 317 316 317 317 317 316 316 315 314 312 311 310 310 310 309 310 314 313 314 315 315 315 317 319 320 321 322 323 323 324 324 324 324 324 327
329 329 329 329 328 326 323 320 319 318 317 318 318 319 318 318 316 315 314 313 311 310 310 308 308 310 312 312 313 313 313 313 314 315 316 317 318 319 320 321 321 322 323 324
328 328 327 326 323 322 321 320 319 319 318 318 318 319 319 319 319 317 315 315 312 309 310 307 308 309 309 310 312 313 312 311 311 311 311 311 311 313 315 316 317 317 318 319
328 327 325 324 323 320 319 319 320 319 319 319 319 319 319 318 319 319 317 313 313 309 310 309 307 305 308 309 310 310 311 312 311 310 310 309 309 309 308 309 309 310 311 312
329 327 324 323 322 321 320 319 319 319 319 319 319 319 319 319 318 320 319 316 314 311 312 311 308 306 306 309 310 309 309 310 310 310 309 308 309 308 308 307 308 308 307 307
327 327 325 324 323 323 323 321 320 319 319 319 319 319 319 318 317 317 319 319 316 313 311 313 309 309 308 310 310 310 309 309 310 310 309 309 307 307 308 307 306 307 306 305
326 327 326 325 323 322 322 322 321 319 319 319 319 319 318 317 317 317 317 317 316 314 312 311 310 310 310 311 310 310 310 309 309 310 310 310 310 309 308 307 307 306 306 307
327 326 326 326 326 323 322 322 322 322 319 318 319 319 319 317 316 315 316 318 319 317 314 313 313 313 313 313 312 311 310 310 308 309 309 309 309 310 310 309 308 306 306 306
324 324 324 325 326 325 323 322 322 322 319 317 317 318 318 318 317 316 316 316 317 318 315 313 314 316 315 314 313 313 311 310 309 308 308 309 309 309 308 309 309 308 307 306
321 320 322 324 324 324 324 323 322 321 319 316 317 318 318 318 316 315 316 316 317 317 316 315 315 315 316 315 314 313 313 312 310 309 309 309 309 309 309 308 309 309 307 307
Wind_Speed
13 26 21 16 9 3 11 12 11 16 13 12 11 6 5 1 3 6 9 9 10 13 14 15 15 15 14 14 14 14 14 15 13 14 14 16 21 25 27 25 23 22 23 23
11 5 10 11 9 8 11 9 10 7 11 14 11 4 3 2 5 10 11 12 13 15 17 17 17 18 18 18 17 17 16 16 16 16 15 14 14 17 20 20 21 22 24 26
12 7 7 11 11 12 8 3 9 10 12 10 9 5 2 6 10 10 11 13 16 18 19 19 19 20 21 21 21 20 18 16 17 18 17 16 15 15 16 17 18 19 20 23
12 6 12 2 6 6 6 4 4 1 4 4 5 3 6 8 5 8 13 16 18 19 19 19 21 21 21 21 21 21 21 19 18 17 17 18 18 18 18 18 17 15 19 20
12 14 14 12 8 4 3 8 8 5 6 3 1 5 8 5 7 12 15 17 16 17 18 20 19 19 22 23 21 18 21 21 21 19 17 18 19 18 19 20 18 19 19 21
12 12 15 9 12 8 5 10 10 4 3 1 4 7 11 8 10 13 14 16 17 17 18 18 18 18 20 20 21 19 23 21 24 21 21 21 21 20 19 19 19 19 21 18
12 13 6 9 9 7 5 5 8 6 2 3 4 7 11 12 12 13 14 16 17 17 18 18 19 19 21 21 21 22 26 28 27 26 25 26 24 22 20 19 20 23 24 23
10 14 12 14 8 3 7 9 6 2 1 2 4 7 9 10 12 13 15 16 16 17 17 19 19 18 21 22 22 24 25 26 26 28 26 23 27 24 22 21 21 23 23 21
7 6 9 12 4 7 7 6 3 1 1 2 5 6 8 10 11 13 14 15 16 16 19 19 18 19 19 21 24 24 26 27 27 27 24 23 25 25 21 19 21 21 20 20
2 7 7 9 5 7 4 3 3 2 0 3 4 5 7 8 10 12 13 14 15 17 17 19 17 17 19 20 21 22 24 24 25 25 22 18 20 22 21 23 27 21 17 20
5 5 4 8 7 7 5 5 5 2 0 1 3 4 6 8 9 11 12 12 13 15 16 17 19 20 19 20 21 23 23 23 24 19 20 20 19 19 22 25 25 17 15 18
5 8 5 1 12 10 9 7 4 2 2 1 2 3 5 6 8 10 12 14 13 14 16 18 20 20 20 21 21 21 23 21 21 20 19 19 19 20 19 23 26 23 22 23
5 2 5 1 9 10 9 7 5 3 2 2 1 3 5 5 8 9 10 12 14 15 17 19 21 20 20 21 21 21 22 21 19 19 20 20 18 20 20 17 19 21 23 23
6 6 3 5 9 10 9 8 8 5 4 3 1 2 5 6 7 9 10 12 14 16 16 18 19 19 20 21 22 20 19 19 18 16 17 19 21 19 18 17 21 22 20 22
9 9 6 9 7 11 10 9 8 7 5 2 0 2 4 6 8 10 10 11 12 14 16 18 21 21 20 20 20 20 15 17 18 17 16 18 18 18 16 17 19 19 18 28
10 9 6 9 11 11 10 9 9 8 6 3 1 2 4 5 7 8 9 11 12 14 16 19 20 21 20 19 20 17 15 13 14 15 16 19 17 16 16 15 14 16 21 21
11 11 10 11 11 11 10 9 9 8 7 6 3 0 2 4 6 8 10 10 11 12 14 15 17 22 21 19 18 19 17 16 14 14 14 15 14 15 14 15 17 17 14 14
12 10 11 11 11 11 11 11 10 10 9 7 6 3 1 3 5 7 8 11 11 10 13 15 16 16 19 22 17 16 18 18 17 17 15 15 14 15 15 14 13 14 17 16
12 11 10 10 10 11 11 12 12 11 10 10 8 6 4 3 4 6 6 9 11 10 12 15 16 14 15 20 20 18 18 18 18 18 18 16 15 15 15 15 16 16 17 17
12 10 9 9 8 9 11 12 13 13 13 11 10 9 8 8 6 6 6 6 8 11 10 15 14 12 14 13 16 17 17 17 18 17 18 17 18 19 19 18 17 17 17 17
11 10 9 9 8 8 10 12 13 14 14 13 13 12 12 11 9 8 7 6 10 12 9 13 13 13 10 13 13 13 14 16 15 15 17 18 18 18 19 20 21 22 21 21
9 10 9 10 9 9 10 12 13 14 14 14 14 14 14 14 13 12 13 10 6 8 4 7 11 16 10 13 10 11 12 12 13 14 13 14 16 16 18 19 19 20 21 22
8 10 11 12 12 11 10 11 13 15 15 15 15 15 15 15 14 15 15 15 7 10 6 7 12 15 10 10 9 9 10 11 10 11 12 14 15 15 15 15 17 17 18 20
9 10 12 14 16 15 15 13 13 15 16 16 16 15 15 15 14 14 13 15 16 17 9 11 9 12 8 8 8 8 8 9 10 9 11 13 12 13 16 15 14 17 15 17
12 14 16 17 19 20 19 17 17 15 17 19 18 17 16 16 16 14 12 13 17 14 11 13 14 13 5 7 8 8 8 8 10 9 9 10 10 11 12 14 15 15 14 20
15 15 16 15 17 18 18 18 20 19 18 18 19 18 17 15 15 14 12 13 14 15 13 11 12 11 8 8 8 6 7 7 8 9 8 9 9 10 11 12 12 15 16 16
21 19 20 15 15 18 17 18 20 21 23 21 18 17 14 15 15 15 14 13 12 13 13 12 11 12 10 8 9 7 7 7 8 9 7 9 9 9 10 10 10 12 15 13
Wind_Direction
140 179 191 265 303 274 290 305 308 324 335 156 144 136 93 120 31 348 337 326 332 331 327 323 321 320 320 318 319 321 315 309 304 294 287 271 268 266 275 283 285 274 270 268
288 280 282 279 266 286 290 298 287 284 288 95 100 123 214 297 340 332 333 328 327 324 321 319 315 313 309 308 307 307 307 299 296 298 285 285 280 273 273 276 273 275 268 268
271 255 265 264 279 238 270 349 305 292 73 108 148 181 338 328 329 341 339 327 320 317 316 313 311 309 306 303 300 298 296 298 294 292 285 280 280 277 279 283 283 278 269 265
268 268 253 338 33 3 307 308 257 303 121 67 34 10 316 323 10 340 328 322 317 315 313 311 308 307 301 296 294 294 292 289 288 288 292 288 283 284 288 286 285 283 285 281
253 259 263 189 182 194 248 278 188 241 127 181 150 297 98 67 346 332 328 323 319 315 313 312 311 307 310 295 283 295 291 287 281 280 283 288 285 280 281 281 280 281 285 279
246 251 271 90 91 94 66 264 150 176 166 281 314 278 106 2 343 335 331 325 321 318 314 310 306 308 308 308 299 286 291 290 285 282 279 282 281 276 275 284 284 282 285 286
234 250 233 110 129 133 250 78 114 125 102 302 306 336 323 330 331 329 328 327 320 317 315 313 311 308 303 303 301 295 290 286 281 274 272 279 277 278 277 282 286 290 289 285
240 252 224 137 150 261 95 127 121 113 80 307 314 313 314 321 323 325 325 326 326 322 318 310 305 304 305 303 305 301 301 300 297 288 281 275 273 271 271 276 289 293 296 293
12 53 111 150 57 124 153 158 158 157 104 317 308 310 319 317 323 327 330 329 330 322 318 315 311 313 305 306 306 306 305 302 301 303 287 270 273 270 272 274 279 285 283 289
331 115 150 167 131 152 151 149 141 143 263 305 306 311 317 323 327 329 328 330 329 329 322 321 324 319 311 318 317 310 308 307 305 304 298 282 271 267 265 262 267 266 279 289
252 179 184 194 192 179 161 158 160 159 199 303 310 320 324 327 331 330 329 328 327 326 326 325 325 325 320 317 319 317 311 312 313 311 297 294 276 270 260 259 269 288 284 292
274 114 202 318 198 194 183 184 181 193 205 334 346 341 338 333 330 332 329 326 328 331 331 329 333 335 333 329 328 322 317 312 317 315 304 299 293 289 274 265 266 270 276 285
292 234 202 153 178 185 186 184 188 182 182 176 12 2 349 340 331 342 335 339 332 331 333 336 338 340 338 333 330 325 320 319 315 315 305 308 308 297 297 276 266 272 272 277
236 159 171 183 174 182 181 181 179 176 170 158 108 3 357 355 343 341 340 340 340 336 341 340 339 342 344 343 339 335 325 323 321 316 314 316 312 308 295 281 287 286 289 281
206 221 279 195 178 179 180 182 184 187 183 187 263 344 350 352 355 354 350 342 337 341 350 350 351 349 344 344 345 346 351 343 329 336 334 321 323 318 303 292 284 295 290 295
224 215 220 182 188 190 191 197 205 197 200 202 220 343 359 1 356 354 353 354 356 350 353 352 349 356 354 351 354 349 348 337 333 332 326 326 328 335 337 322 312 307 310 300
204 204 205 204 203 206 209 212 214 209 208 209 209 190 9 10 359 4 2 357 359 358 356 350 352 356 1 360 360 1 358 352 347 343 345 348 342 341 341 339 345 341 347 3
217 222 220 220 219 217 219 217 214 211 211 210 205 211 310 2 8 3 4 6 6 3 359 358 8 3 2 9 11 11 4 5 2 359 356 352 344 344 350 353 337 330 332 329
212 218 217 214 220 223 224 222 219 216 213 211 215 227 250 287 332 347 351 1 4 357 357 357 20 6 6 3 18 20 21 22 14 14 17 15 10 4 4 1 358 347 345 344
210 213 211 209 211 218 227 227 222 221 220 222 226 235 251 265 275 308 329 316 348 356 6 357 6 5 1 2 20 8 13 18 21 22 21 22 21 20 23 22 17 10 2 356
206 211 213 213 221 230 229 225 223 225 226 230 235 244 254 261 260 271 285 299 302 351 12 359 1 9 360 24 22 4 8 7 13 18 20 24 27 25 24 24 23 21 21 20
213 221 227 227 235 238 233 230 232 232 233 236 242 248 253 257 262 262 258 249 272 313 359 330 358 7 26 32 6 10 10 10 7 8 12 19 21 21 20 23 21 20 18 16
236 245 247 243 243 243 242 244 243 241 239 240 243 248 251 257 262 264 263 229 233 272 317 285 336 0 22 14 360 2 7 6 10 9 5 5 11 11 12 10 11 9 8 16
265 264 263 259 250 243 239 231 243 247 245 245 247 248 250 254 261 260 255 248 255 267 267 269 307 339 15 355 348 354 357 360 2 3 1 4 2 1 3 4 9 360 5 8
277 282 274 263 253 249 247 243 238 237 247 244 246 250 251 252 254 259 254 259 247 266 264 273 281 309 336 324 333 343 346 338 351 357 359 352 354 358 355 354 348 358 6 8
277 282 283 271 259 254 251 245 246 246 247 244 243 243 246 248 246 254 249 256 254 259 258 260 276 282 288 293 304 325 329 331 342 342 350 339 347 351 349 351 344 351 5 1
282 286 277 266 268 259 253 247 244 245 246 234 241 254 250 239 247 244 247 254 250 248 255 260 264 267 266 273 281 290 311 318 317 333 338 333 338 341 340 343 348 344 354 353